Regional Weather Roundup
Issued by NWS Jackson, KY

Home | Current Version | Previous Version | Text Only | Print | Product List | Glossary On
Versions: 1 2 3 4 5 6 7 8 9 10 11 12 13 14 15 16 17 18 19 20 21 22 23 24 25 26 27 28 29 30 31 32 33 34 35 36 37 38 39 40 41 42 43 44 45 46 47 48 49 50
848
ASUS43 KJKL 261610
RWRJKL

EAST KENTUCKY HOURLY WEATHER ROUNDUP
NATIONAL WEATHER SERVICE JACKSON KY
1200 PM EDT SUN MAR 26 2017

NOTE: "FAIR" INDICATES FEW OR NO CLOUDS BELOW 12,000 FEET WITH
NO SIGNIFICANT WEATHER AND/OR OBSTRUCTIONS TO VISIBILITY.

* THESE REPORTS ARE NOT UNDER NWS QUALITY CONTROL AND MAY NOT
  REPORT WEATHER SUCH AS PRECIPITATION AND FOG.

KYZ079-080-083-085-087-088-110-112-115-119-120-261700
...EASTERN KENTUCKY...

CITY           SKY/WX    TMP DP  RH WIND       PRES   REMARKS
JACKSON        CLOUDY    63  54  72 VRB7      30.05F
LONDON         CLOUDY    64  53  67 S13G23    30.04S
SOMERSET*      HVY RAIN  59  59 100 N5        30.04F
MONTICELLO*    CLOUDY    60  57  89 W15       30.06R
WILLIAMSBURG*  CLOUDY    64  57  77 S13       30.04F
MIDDLESBORO*   LGT RAIN  61  57  87 S7        30.09S
HARLAN APT*    CLOUDY    64  52  63 CALM      30.08F
PIKE CO APT*     N/A     63  56  77 S7G20     30.08F
BIG SANDY APT* MOSUNNY   65  56  74 S12G17    30.07F
MOREHEAD APT*  CLOUDY    59  55  88 VRB7G14   30.05F
ASHLAND*       CLOUDY    50  50 100 E3        30.04F
$$

KYZ035-036-041-042-044-050-067-078-099-261700
...CENTRAL KENTUCKY...

CITY           SKY/WX    TMP DP  RH WIND       PRES   REMARKS
MT STERLING*   DRIZZLE   59  57  94 S10       30.04S
FLEMING/MASON* DRIZZLE   58  56  94 S8        30.03F
DANVILLE*      DRIZZLE   59  55  88 SW12      30.03S
LEXINGTON      LGT RAIN  60  57  89 S15G23    30.00F FOG
FRANKFORT      CLOUDY    63  56  78 SW17G23   29.98S
LOUISVILLE     CLOUDY    64  56  75 S9        29.97S
LEBANON*       CLOUDY    61  57  88 S13G21    30.00F
GLASGOW*       CLOUDY    63  57  80 S14       30.01S
BOWLING GREEN  CLOUDY    64  56  75 SW15      30.01R
$$

KYZ091>093-OHZ055-061-077-WVZ005-015-034-035-042-261700
...SOUTHERN OHIO/WEST VIRGINIA...

CITY           SKY/WX    TMP DP  RH WIND       PRES   REMARKS
COVINGTON      RAIN      58  57  97 S7        29.98F FOG
COLUMBUS       LGT RAIN  59  57  93 S8        30.01F FOG
DAYTON         LGT RAIN  58  54  86 S16       29.98F
WILMINGTON     CLOUDY    59  56  89 S17       29.99F
HUNTINGTON     PTSUNNY   62  56  80 SE8       30.05F
CHARLESTON     LGT RAIN  65  49  56 S17       30.09R
PINEVILLE*     LGT RAIN  56  53  88 MISG      30.19F
BECKLEY        CLOUDY    60  47  61 S13       30.16R
LOGAN CO APT*  PTSUNNY   59  54  82 VRB3G13   30.11S
$$

VAZ002-007-008-TNZ017-027-036-066-071-261700
...SOUTHWEST VIRGINIA/EAST TENNESSEE...

CITY           SKY/WX    TMP DP  RH WIND       PRES   REMARKS
WISE*          CLOUDY    61  52  72 S8        30.14F
JONESVILLE*    PTSUNNY   64  55  72 CALM      30.11F
ABINGDON*      CLOUDY    61  58  89 E5        30.15S
BRISTOL        MOSUNNY   65  56  72 S6        30.12F
MORRISTOWN*    CLOUDY    68  55  64 S7G14     30.08F
SEVIERVILLE*   PTSUNNY   70  54  56 SW6       30.07S
KNOXVILLE      CLOUDY    69  54  58 S12       30.07S
LAFOLLETTE*    PTSUNNY   61  57  88 S8        30.10S
OAK RIDGE      CLOUDY    63  57  81 W3        30.09S
CROSSVILLE     LGT RAIN  58  55  90 S9G17     30.08R FOG
NASHVILLE      CLOUDY    65  56  72 S15G23    30.02S
$$

...KEY TO REMARKS...
VSB - VISIBILITY IN MILES
WCI - WIND CHILL INDEX
HX  - HEAT INDEX

$$




USA.gov is the U.S. government's official web portal to all federal, state and local government web resources and services.